SCP
0 0 0 0 0 0 0 1 1 2 3 4 4 4 4 4 4 4 5 5 6 7 8 9 10 9 9 8 7 8 9 11 13 14 13 12 11 10 11 10 9 8 7 7
0 0 0 0 0 0 0 1 1 2 3 4 4 4 4 4 4 4 5 6 8 9 9 10 11 10 9 8 8 8 9 11 13 13 13 12 11 10 11 10 9 7 7 7
1 1 0 0 0 0 1 1 2 2 3 4 4 4 4 5 5 5 5 7 9 10 10 11 12 11 10 10 9 9 10 12 13 13 12 12 11 10 11 10 8 7 7 7
1 1 1 0 0 0 1 1 2 3 3 4 4 4 5 5 6 6 6 8 10 10 9 11 11 10 10 10 10 10 11 12 12 12 12 13 13 12 11 9 8 7 6 7
1 1 1 0 0 1 1 2 2 3 4 4 4 5 5 5 6 6 8 11 12 10 9 10 11 10 10 9 9 10 10 11 11 12 15 16 15 14 12 10 8 7 7 7
0 0 1 1 1 1 2 2 3 4 5 5 5 5 5 6 7 10 13 15 13 10 9 10 10 10 9 9 9 10 11 10 11 13 16 16 16 15 12 10 8 7 7 7
1 1 1 1 1 1 2 3 4 5 6 6 5 6 7 10 15 19 20 17 13 11 11 11 10 10 10 10 10 11 11 10 11 13 13 13 14 14 12 10 9 8 7 7
1 1 1 2 2 2 3 3 4 5 5 6 6 8 12 19 25 26 20 15 14 14 13 12 12 11 11 10 10 10 10 11 12 11 10 10 11 11 10 9 9 8 8 8
2 3 3 4 5 6 5 4 3 4 5 6 8 12 18 24 25 22 16 12 13 14 15 14 14 14 12 10 10 11 11 10 10 9 9 9 8 8 8 7 7 8 8 9
3 4 5 7 8 9 8 6 5 5 6 8 12 16 20 21 18 15 14 12 12 13 15 16 17 16 13 11 11 12 12 10 8 8 9 9 7 6 5 5 6 7 8 8
4 4 6 7 8 8 7 7 8 8 8 9 12 15 16 17 16 16 16 14 11 11 13 16 17 15 12 11 12 13 12 10 7 8 9 8 7 5 3 3 3 4 5 5
3 3 4 4 4 4 5 7 9 9 8 9 11 13 16 19 21 20 18 14 11 10 12 13 13 12 11 12 13 13 10 8 6 6 7 6 5 3 2 1 1 1 2 2
3 3 3 2 2 3 4 6 7 6 7 9 12 16 19 23 23 20 15 11 9 11 12 12 11 10 11 12 12 10 8 6 6 7 6 4 3 2 2 1 1 0 0 0
4 3 3 2 2 3 4 5 5 5 7 10 14 17 20 21 19 15 11 8 8 11 13 13 12 11 11 11 10 7 5 4 6 7 5 3 2 2 2 1 1 1 1 0
3 3 3 2 3 4 5 5 4 5 7 10 13 16 17 16 14 11 8 7 8 10 14 16 14 12 10 9 7 4 3 3 4 4 3 2 1 1 1 1 1 1 1 1
2 2 2 2 3 3 4 3 4 5 8 10 11 12 12 11 9 8 7 7 8 11 15 17 15 11 8 6 4 3 2 2 2 1 1 1 1 1 1 1 1 1 1 1
1 1 2 2 2 3 3 3 4 6 7 8 9 9 8 7 7 7 7 7 9 13 16 16 12 9 7 5 4 2 1 1 1 0 1 1 1 1 1 1 1 1 1 1
1 1 1 2 3 4 4 4 5 7 8 8 8 8 7 6 7 8 7 7 9 13 14 11 8 6 5 5 4 2 1 1 1 1 1 1 1 1 1 1 1 1 1 1
1 1 1 2 3 4 4 5 7 8 9 8 8 7 6 7 9 10 8 7 9 11 10 7 5 4 4 4 3 2 2 1 1 1 1 1 1 0 1 1 1 1 1 1
1 1 1 2 3 4 5 7 8 8 8 7 7 6 5 7 10 10 8 6 8 9 8 5 3 3 3 2 2 1 1 1 1 1 1 1 1 1 1 1 1 1 1 1
1 2 2 3 4 5 6 8 8 7 6 6 6 5 5 8 11 11 9 6 6 6 5 4 3 3 2 2 1 1 1 1 1 1 1 1 1 1 1 1 1 1 1 1
2 3 3 4 5 6 6 7 7 6 6 5 5 5 6 8 11 11 9 7 5 4 3 3 3 2 1 1 1 1 1 1 0 1 1 1 1 1 1 1 1 1 1 1
4 4 4 4 5 6 6 6 6 6 6 5 5 5 6 8 10 10 8 6 4 3 3 2 2 1 1 1 1 1 1 1 1 1 1 1 1 1 1 1 1 1 1 1
4 4 4 4 5 5 5 5 5 5 5 4 4 4 5 7 9 8 6 4 2 2 2 1 1 0 0 1 1 1 1 1 1 1 1 1 1 1 1 1 1 1 1 0
3 3 4 4 4 4 3 3 2 3 3 2 2 3 4 6 7 6 5 3 1 1 1 1 0 0 0 1 1 1 0 0 1 1 1 1 1 1 1 1 1 0 0 0
2 3 3 3 3 2 1 1 1 1 1 1 2 3 3 4 4 4 3 2 1 0 0 1 1 0 1 1 1 0 0 0 0 0 0 0 0 0 0 0 0 0 0 0
2 2 2 2 1 1 1 1 1 1 1 2 2 2 2 3 3 3 3 1 1 0 0 1 1 0 0 1 0 0 0 0 0 0 0 0 0 0 0 0 0 0 0 0
Wind_Speed
14 14 14 14 14 13 13 13 12 8 5 4 4 4 5 5 6 5 5 6 6 6 5 5 4 4 3 3 3 4 4 4 3 2 1 1 1 1 1 2 2 1 1 1
13 14 15 16 15 13 13 12 11 9 6 3 4 4 5 5 5 5 5 5 5 5 5 4 4 4 4 3 3 4 3 3 2 2 2 2 1 1 1 1 1 1 1 2
13 14 15 16 12 11 9 9 9 7 3 3 3 4 4 4 4 5 4 4 5 5 5 4 4 4 3 3 3 3 3 3 3 2 2 2 1 1 1 1 1 1 1 2
12 13 17 11 7 7 6 7 5 2 0 2 3 4 4 4 4 4 3 4 4 5 5 5 4 4 3 3 3 3 3 3 2 1 1 1 1 1 1 1 1 1 2 2
10 14 15 10 6 5 6 6 4 2 1 1 2 3 4 4 4 4 4 4 3 3 5 5 4 4 4 2 3 2 2 2 1 1 1 1 1 1 1 1 2 2 2 2
10 13 14 7 3 4 4 5 2 1 1 1 2 4 2 4 5 4 4 4 3 3 4 4 4 4 3 2 2 2 1 1 2 1 1 1 1 1 1 1 2 2 2 2
12 14 11 4 3 5 6 2 3 2 1 2 1 0 3 4 4 4 4 4 4 3 3 4 4 4 3 2 2 1 1 1 1 1 2 2 1 1 2 2 2 3 3 2
11 13 8 3 2 3 3 3 3 4 2 1 2 4 5 5 4 4 4 4 3 3 4 4 4 3 2 2 1 1 1 0 0 0 2 1 1 2 2 3 3 3 3 3
5 4 2 4 3 2 2 2 2 2 2 1 2 4 4 4 4 3 3 3 3 3 4 4 3 3 2 1 1 1 1 0 1 1 1 1 2 3 2 2 3 3 3 2
3 3 1 2 2 3 3 3 3 3 3 1 2 3 3 4 3 3 3 3 3 3 3 2 2 2 2 2 1 1 1 1 1 2 2 1 1 2 2 1 2 2 2 2
4 3 2 1 3 4 3 3 4 4 3 1 1 2 3 2 2 2 2 2 2 2 3 2 2 1 1 1 1 0 1 2 3 3 2 1 1 1 2 1 1 2 2 2
3 1 1 1 1 3 3 3 3 3 3 2 1 2 1 2 2 2 2 2 2 2 2 2 2 2 1 0 1 1 2 2 3 2 1 1 1 0 2 1 1 1 1 2
2 2 2 1 1 2 2 2 2 2 1 1 2 2 2 2 2 1 2 2 2 2 2 2 2 2 2 1 1 1 2 3 3 3 2 2 2 2 2 1 2 3 4 4
4 3 1 1 1 2 2 2 2 1 0 1 2 2 2 1 1 1 1 1 2 2 2 2 2 2 1 1 2 2 3 3 3 3 3 3 3 3 3 3 3 2 4 5
2 1 2 2 1 1 1 1 2 1 1 1 1 1 1 1 1 1 1 0 1 2 2 2 1 1 0 1 2 2 4 3 2 3 3 3 3 4 3 3 3 2 1 2
2 2 2 2 2 2 2 2 2 2 1 1 1 1 1 1 1 0 1 0 1 1 1 1 1 1 1 1 2 3 3 4 4 4 4 3 3 3 3 3 3 2 1 1
3 3 3 3 2 3 3 3 3 2 2 1 1 1 1 0 0 0 1 1 0 1 1 1 1 1 1 2 3 3 3 3 4 5 4 3 3 4 3 3 3 3 2 0
3 3 3 3 3 3 3 3 3 2 2 1 1 1 1 1 1 1 1 0 0 1 1 1 1 1 2 2 2 3 4 4 4 4 3 3 3 4 4 3 3 3 3 2
3 3 3 3 2 2 2 2 2 1 1 1 1 1 1 1 1 1 1 1 1 2 1 1 1 3 3 2 3 3 5 5 5 4 3 3 4 4 3 3 4 4 3 2
2 2 2 1 1 1 1 1 1 1 1 1 1 1 1 1 1 2 2 3 2 2 1 0 2 2 2 2 3 4 5 5 5 4 3 4 4 3 3 3 3 3 3 3
1 1 1 1 0 0 0 0 1 1 1 0 1 2 2 1 2 2 3 3 1 1 1 2 3 2 2 2 4 5 5 4 4 3 3 3 3 3 3 3 3 3 3 3
1 0 1 1 0 0 0 0 1 1 0 0 1 1 2 2 2 3 2 2 1 2 2 2 2 1 2 3 4 5 4 4 3 3 3 3 2 3 3 3 3 3 3 2
1 1 1 1 1 1 1 1 1 1 1 1 1 2 2 2 2 2 2 1 1 1 2 2 0 1 1 3 4 4 4 3 3 3 3 2 2 2 3 3 3 3 2 3
1 1 1 1 2 2 2 2 1 1 2 2 2 2 2 2 2 2 1 1 1 1 2 0 2 2 2 3 4 4 4 3 3 3 2 2 2 2 2 2 2 2 2 3
1 1 2 2 3 2 2 2 2 3 3 3 3 2 2 2 2 2 1 1 1 2 2 2 5 5 4 4 4 4 3 3 2 2 2 2 2 2 2 2 2 2 2 2
2 2 2 2 2 2 2 2 2 1 2 2 2 2 2 1 1 1 1 2 2 2 2 2 2 4 4 4 4 3 2 2 2 3 2 2 2 3 2 2 3 2 2 2
3 2 2 2 3 3 2 1 1 1 2 1 2 2 2 1 1 1 2 2 1 1 2 2 2 3 3 3 3 3 3 2 2 2 2 2 2 2 2 2 2 2 2 3
Wind_Direction
266 269 272 270 263 259 261 269 275 276 250 205 163 153 139 130 128 128 128 126 121 121 120 119 116 126 129 120 116 122 131 142 146 154 171 176 187 201 216 218 222 219 249 265
269 267 268 267 263 261 259 262 267 269 269 178 139 129 132 140 142 140 137 136 130 127 124 124 121 131 130 128 126 125 134 146 148 157 161 170 170 172 197 245 269 242 247 262
273 274 274 264 264 271 265 269 276 273 264 156 147 150 166 166 152 145 151 153 146 135 128 128 123 111 118 131 134 142 148 150 149 155 168 171 197 185 203 218 245 267 287 279
265 270 264 268 279 277 281 268 276 291 184 184 181 156 150 148 144 142 144 149 145 148 138 129 123 119 117 129 136 143 143 145 149 156 183 200 205 214 224 219 243 258 259 265
260 261 262 265 267 266 268 276 298 293 258 182 137 155 153 140 128 128 133 135 146 150 134 124 123 117 109 118 123 135 144 135 138 174 238 243 244 256 265 253 249 256 260 267
253 261 264 278 296 303 273 256 311 308 193 192 215 227 174 124 128 125 113 119 116 120 127 123 116 121 126 134 126 143 152 154 160 166 246 258 260 269 271 269 271 271 271 260
249 258 261 310 318 290 266 306 1 332 229 197 237 334 114 125 120 119 118 124 127 129 129 120 115 118 122 124 132 138 141 169 193 198 225 227 237 255 270 269 270 269 263 255
246 254 259 6 314 303 352 27 24 9 360 31 87 100 108 112 111 116 119 122 128 119 112 111 112 118 125 128 116 90 73 49 350 286 267 244 255 262 259 263 264 258 256 249
256 260 10 26 32 18 4 32 30 17 15 23 115 118 123 127 128 125 123 122 124 121 112 116 123 132 141 127 125 142 161 214 244 263 279 274 251 257 258 264 279 286 283 278
251 230 212 20 358 356 18 38 25 17 26 63 129 134 134 129 129 132 141 147 142 134 121 105 101 111 123 122 136 173 209 240 246 242 238 250 269 273 263 257 271 286 299 307
243 253 271 14 12 5 15 23 24 19 23 75 111 109 109 113 126 128 128 133 140 138 135 132 122 109 96 86 112 205 255 266 266 259 241 234 268 314 304 325 291 270 298 309
255 257 264 268 358 349 343 6 15 16 12 26 67 107 116 107 112 121 135 148 157 160 153 152 153 134 127 158 150 244 257 262 275 278 255 243 228 306 10 227 184 166 240 271
318 338 351 17 21 328 318 353 4 354 356 39 78 97 97 87 105 117 144 155 167 169 162 183 175 169 174 196 202 234 265 277 285 284 273 251 246 239 245 253 245 246 246 249
37 30 3 343 331 327 344 340 319 307 19 85 88 90 88 95 120 139 187 186 188 177 180 184 181 175 179 201 226 245 254 250 263 268 271 268 260 260 253 246 242 237 234 233
13 330 298 321 346 340 330 314 310 326 52 79 87 81 61 44 53 35 9 242 203 200 193 191 180 145 133 246 255 272 279 275 275 282 274 270 268 265 263 261 264 251 215 215
278 267 265 264 261 266 260 257 253 251 229 172 131 108 95 70 62 32 18 46 174 191 165 161 176 190 218 253 261 263 269 273 270 276 272 265 265 271 272 270 274 266 250 260
274 265 260 258 257 262 259 259 253 247 237 202 159 149 165 206 322 22 329 289 175 159 175 191 210 212 248 270 277 278 281 271 260 267 273 284 290 291 293 295 295 297 299 270
278 282 277 267 258 260 268 267 259 245 235 211 206 204 217 219 217 220 261 268 272 241 223 212 201 264 268 277 289 287 285 280 268 267 277 284 288 285 283 285 286 287 286 261
270 274 269 264 259 254 256 269 269 249 236 221 224 228 238 235 221 223 242 245 246 247 239 230 239 259 268 267 287 270 270 273 273 274 274 271 269 273 275 277 281 282 282 281
259 262 257 265 277 280 291 279 290 292 272 227 221 239 255 252 253 239 235 240 241 246 231 232 248 262 266 266 273 274 272 271 272 274 273 266 268 273 274 274 278 282 285 286
265 243 223 248 294 17 335 328 302 308 302 223 242 260 270 268 266 259 250 248 205 165 241 227 240 260 272 281 265 267 268 271 273 274 274 275 281 284 284 284 288 289 289 288
325 288 280 275 236 243 346 318 280 268 236 241 281 293 291 269 258 253 250 262 223 169 236 249 246 291 309 289 273 272 271 270 274 274 272 279 289 296 293 292 292 298 302 307
336 352 307 300 304 293 279 261 266 276 262 234 255 278 281 292 283 274 273 252 229 184 252 269 344 73 292 274 279 280 279 276 278 282 284 287 290 293 297 299 301 304 306 304
280 253 265 277 270 259 252 253 281 263 242 237 232 245 262 260 263 279 320 131 149 203 266 211 160 182 246 274 280 282 282 281 279 281 281 280 277 279 283 287 292 298 297 295
236 238 241 249 255 252 232 213 223 238 241 244 246 242 251 254 278 308 291 273 168 200 257 213 200 212 237 264 275 281 282 282 283 289 285 286 290 290 286 282 275 277 287 297
235 237 238 247 266 273 259 248 244 251 262 268 279 279 261 252 273 270 244 252 246 218 241 244 226 221 237 254 266 273 272 270 265 257 260 268 277 278 280 281 286 295 300 300
222 221 227 241 246 255 259 252 272 289 292 294 299 306 309 317 319 304 288 284 292 274 264 256 256 258 259 262 273 282 281 276 274 273 272 270 272 274 275 278 284 289 295 297